Weather History for KLOT - November, 2013

Change the Weather History Date:

Sunday, November 10, 2013

  Actual Average Record
Temperature  
Mean Temperature 40 °F 44 °F  
Max Temperature 48 °F 52 °F 72 °F (2010)
Min Temperature 32 °F 35 °F 24 °F (2008)
Degree Days  
Heating Degree Days 25 22  
Month to date heating degree days 212 197  
Since 1 July heating degree days 684 684  
Cooling Degree Days 0 0  
Month to date cooling degree days 0 0  
Year to date cooling degree days 950 862  
Moisture  
Dew Point 29 °F    
Average Humidity 66    
Maximum Humidity 83    
Minimum Humidity 47    
Precipitation  
Precipitation 0.00 in 0.11 in 3.13 in (1995)
Month to date precipitation 1.29 1.17  
Year to date precipitation 37.77 35.53  
Snow  
Snow 0.00 in 0.10 in 0.00 in (2011)
Month to date snowfall 0.0 0.1  
Since 1 July snowfall T 0.1  
Since 1 September snowfall T 0.1  
Snow Depth 0.00 in    
Sea Level Pressure  
Sea Level Pressure 30.27 in    
Wind  
Wind Speed 11 mph (West)    
Max Wind Speed 18 mph    
Max Gust Speed 26 mph    
Visibility 10 miles    
Events      
T = Trace of Precipitation, MM = Missing Value Source: NWS Daily Summary

Daily Weather History Graph

Daily Weather History Graph

Search for Another Location

Airport or City:

Trip Planner

Search our weather history database for the weather conditions in past years. The results will help you decide how hot, cold, wet, or windy it might be!

Date:

Astronomy

Nov. 10, 2013 Rise Set
Actual Time 6:35 AM CST 4:36 PM CST
Civil Twilight 6:06 AM CST 5:06 PM CST
Nautical Twilight 5:32 AM CST 5:39 PM CST
Astronomical Twilight 5:00 AM CST 6:11 PM CST
Moon 12:47 PM CST (11/10) No Moon Set
Length of Visible Light 11h 00m
Length of Day
10h 01m
First Quarter, 56% of the Moon is Illuminated
Nov 10
First Quarter
Nov 17
Full
Nov 25
Last Quarter
Dec 2
New
Dec 9
First Quarter

Hourly Weather History & Observations

Time (CST) Temp. Windchill Dew Point Humidity Pressure Visibility Wind Dir Wind Speed Gust Speed Precip Events Conditions
12:15 AM 39.4 °F 31.8 °F 26.8 °F 61% 30.14 in 10.0 mi WNW 12.7 mph 20.7 mph N/A   Clear
12:35 AM 39.4 °F 30.1 °F 27.1 °F 62% 30.14 in 10.0 mi WNW 18.4 mph 26.5 mph N/A   Clear
12:55 AM 39.2 °F 29.8 °F 26.8 °F 61% 30.14 in 10.0 mi WNW 18.4 mph 25.3 mph N/A   Clear
1:15 AM 38.8 °F 30.4 °F 26.6 °F 61% 30.14 in 10.0 mi WNW 15.0 mph 25.3 mph N/A   Clear
1:35 AM 37.9 °F 29.6 °F 27.0 °F 65% 30.15 in 10.0 mi WNW 13.8 mph 20.7 mph N/A   Clear
1:55 AM 37.4 °F 28.2 °F 27.3 °F 67% 30.16 in 10.0 mi WNW 16.1 mph 20.7 mph N/A   Clear
2:15 AM 37.2 °F 29.1 °F 27.5 °F 68% 30.17 in 10.0 mi WNW 12.7 mph - N/A   Clear
2:35 AM 36.3 °F 27.5 °F 27.5 °F 70% 30.17 in 10.0 mi WNW 13.8 mph - N/A   Clear
2:55 AM 35.8 °F 27.3 °F 27.9 °F 73% 30.17 in 10.0 mi WNW 12.7 mph - N/A   Clear
3:15 AM 35.4 °F 27.3 °F 27.5 °F 73% 30.18 in 10.0 mi WNW 11.5 mph - N/A   Clear
3:35 AM 35.1 °F 26.4 °F 27.9 °F 75% 30.19 in 10.0 mi WNW 12.7 mph - N/A   Clear
3:55 AM 34.2 °F 26.2 °F 27.9 °F 78% 30.20 in 10.0 mi WNW 10.4 mph - N/A   Clear
4:15 AM 33.8 °F 24.8 °F 28.0 °F 79% 30.21 in 10.0 mi WNW 12.7 mph - N/A   Clear
4:35 AM 33.6 °F 24.6 °F 27.9 °F 79% 30.22 in 10.0 mi WNW 12.7 mph - N/A   Clear
4:55 AM 33.3 °F 25.1 °F 27.9 °F 81% 30.24 in 10.0 mi NW 10.4 mph - N/A   Clear
5:15 AM 32.9 °F 24.1 °F 27.9 °F 82% 30.24 in 10.0 mi WNW 11.5 mph - N/A   Clear
5:35 AM 32.9 °F 24.1 °F 27.7 °F 81% 30.25 in 10.0 mi WNW 11.5 mph - N/A   Clear
5:55 AM 32.7 °F 23.9 °F 27.5 °F 81% 30.26 in 10.0 mi WNW 11.5 mph - N/A   Clear
6:15 AM 32.2 °F 23.8 °F 27.5 °F 83% 30.26 in 10.0 mi WNW 10.4 mph - N/A   Clear
6:35 AM 32.2 °F 23.8 °F 27.5 °F 83% 30.27 in 10.0 mi WNW 10.4 mph - N/A   Clear
6:55 AM 32.0 °F 24.2 °F 27.5 °F 83% 30.28 in 10.0 mi WNW 9.2 mph - N/A   Clear
7:15 AM 32.5 °F 23.7 °F 27.5 °F 82% 30.29 in 10.0 mi WNW 11.5 mph - N/A   Clear
7:35 AM 33.4 °F 25.9 °F 28.2 °F 81% 30.30 in 10.0 mi WNW 9.2 mph - N/A   Clear
7:55 AM 34.5 °F 27.3 °F 28.4 °F 78% 30.31 in 10.0 mi WNW 9.2 mph - N/A   Clear
8:15 AM 35.6 °F 27.1 °F 28.4 °F 75% 30.32 in 10.0 mi WNW 12.7 mph - N/A   Clear
8:35 AM 36.9 °F 28.7 °F 28.9 °F 73% 30.32 in 10.0 mi WNW 12.7 mph - N/A   Clear
8:55 AM 37.6 °F 29.1 °F 28.8 °F 70% 30.33 in 10.0 mi WNW 13.8 mph 21.9 mph N/A   Clear
9:15 AM 39.2 °F 31.2 °F 29.3 °F 68% 30.34 in 10.0 mi NW 13.8 mph - N/A   Clear
9:35 AM 40.1 °F 32.0 °F 29.8 °F 67% 30.34 in 10.0 mi NW 15.0 mph 18.4 mph N/A   Clear
9:55 AM 41.7 °F 33.7 °F 29.1 °F 61% 30.34 in 10.0 mi NW 16.1 mph 20.7 mph N/A   Clear
10:15 AM 42.8 °F 35.8 °F 28.6 °F 57% 30.34 in 10.0 mi NNW 13.8 mph 18.4 mph N/A   Clear
10:35 AM 43.0 °F 37.7 °F 28.9 °F 58% 30.34 in 10.0 mi NW 9.2 mph 18.4 mph N/A   Clear
10:55 AM 43.7 °F 37.3 °F 29.5 °F 57% 30.34 in 10.0 mi NNW 12.7 mph 17.3 mph N/A   Clear
11:15 AM 44.2 °F 39.2 °F 28.8 °F 55% 30.34 in 10.0 mi NNW 9.2 mph - N/A   Clear
11:35 AM 44.6 °F 39.2 °F 29.3 °F 55% 30.33 in 10.0 mi NW 10.4 mph - N/A   Clear
11:55 AM 45.1 °F 39.5 °F 29.8 °F 55% 30.32 in 10.0 mi NNW 11.5 mph 17.3 mph N/A   Clear
12:15 PM 45.0 °F 41.8 °F 28.8 °F 53% 30.32 in 10.0 mi WNW 5.8 mph - N/A   Clear
12:35 PM 45.9 °F 41.7 °F 28.9 °F 52% 30.32 in 10.0 mi NNW 8.1 mph - N/A   Clear
12:55 PM 46.8 °F - 28.4 °F 49% 30.32 in 10.0 mi West 4.6 mph - N/A   Clear
1:15 PM 46.6 °F - 28.8 °F 50% 30.32 in 10.0 mi NW 9.2 mph - N/A   Clear
1:35 PM 46.9 °F - 29.1 °F 50% 30.31 in 10.0 mi West 6.9 mph - N/A   Clear
1:55 PM 47.7 °F - 28.4 °F 47% 30.31 in 10.0 mi West 5.8 mph - N/A   Clear
2:15 PM 47.8 °F - 28.6 °F 47% 30.31 in 10.0 mi WNW 5.8 mph - N/A   Clear
2:35 PM 47.7 °F - 28.6 °F 48% 30.30 in 10.0 mi WNW 9.2 mph - N/A   Clear
2:55 PM 47.5 °F - 28.2 °F 47% 30.30 in 10.0 mi NW 8.1 mph - N/A   Clear
3:15 PM 47.7 °F - 28.4 °F 47% 30.30 in 10.0 mi WSW 5.8 mph - N/A   Clear
3:35 PM 46.9 °F - 28.6 °F 49% 30.30 in 10.0 mi SW 6.9 mph - N/A   Clear
3:55 PM 46.4 °F 42.9 °F 28.8 °F 50% 30.30 in 10.0 mi WSW 6.9 mph - N/A   Clear
4:15 PM 44.8 °F 41.0 °F 28.9 °F 54% 30.31 in 10.0 mi West 6.9 mph - N/A   Clear
4:35 PM 42.6 °F 38.4 °F 28.9 °F 58% 30.30 in 10.0 mi WSW 6.9 mph - N/A   Clear
4:55 PM 41.9 °F 37.5 °F 29.3 °F 61% 30.30 in 10.0 mi WSW 6.9 mph - N/A   Clear
5:15 PM 40.5 °F 36.5 °F 29.3 °F 64% 30.30 in 10.0 mi WSW 5.8 mph - N/A   Clear
5:35 PM 38.3 °F 33.2 °F 29.1 °F 70% 30.29 in 7.0 mi SSW 6.9 mph - N/A   Clear
5:55 PM 36.9 °F 34.3 °F 29.1 °F 74% 30.29 in 10.0 mi SW 3.5 mph - N/A   Clear
6:15 PM 39.0 °F 36.8 °F 30.0 °F 70% 30.29 in 10.0 mi SW 3.5 mph - N/A   Mostly Cloudy
6:35 PM 39.7 °F 35.6 °F 31.1 °F 71% 30.29 in 10.0 mi SW 5.8 mph - N/A   Overcast
6:55 PM 40.6 °F 36.0 °F 31.3 °F 69% 30.29 in 10.0 mi SW 6.9 mph - N/A   Overcast
7:15 PM 41.4 °F 37.6 °F 31.1 °F 67% 30.29 in 10.0 mi WSW 5.8 mph - N/A   Overcast
7:35 PM 41.4 °F 38.4 °F 31.3 °F 67% 30.29 in 10.0 mi SW 4.6 mph - N/A   Overcast
7:55 PM 41.0 °F 38.0 °F 31.6 °F 69% 30.28 in 10.0 mi SW 4.6 mph - N/A   Overcast
8:15 PM 40.6 °F 36.7 °F 32.0 °F 71% 30.28 in 10.0 mi SW 5.8 mph - N/A   Overcast
8:35 PM 40.8 °F 36.9 °F 32.0 °F 71% 30.27 in 10.0 mi SW 5.8 mph - N/A   Overcast
8:55 PM 41.4 °F 36.8 °F 31.8 °F 69% 30.27 in 10.0 mi SW 6.9 mph - N/A   Overcast
9:15 PM 41.9 °F 38.2 °F 31.8 °F 67% 30.26 in 10.0 mi SSW 5.8 mph - N/A   Overcast
9:35 PM 41.9 °F 36.9 °F 32.0 °F 68% 30.25 in 10.0 mi SSW 8.1 mph - N/A   Overcast
9:55 PM 42.1 °F 36.6 °F 31.5 °F 66% 30.25 in 10.0 mi SW 9.2 mph - N/A   Overcast
10:15 PM 42.8 °F 37.5 °F 30.9 °F 63% 30.25 in 10.0 mi SW 9.2 mph - N/A   Overcast
10:35 PM 42.8 °F 38.0 °F 31.1 °F 63% 30.24 in 10.0 mi SW 8.1 mph - N/A   Overcast
10:55 PM 42.8 °F 37.5 °F 31.1 °F 63% 30.24 in 10.0 mi WSW 9.2 mph - N/A   Overcast
11:15 PM 42.8 °F 37.5 °F 31.6 °F 65% 30.23 in 10.0 mi SW 9.2 mph - N/A   Overcast
11:35 PM 42.3 °F 37.3 °F 32.0 °F 67% 30.23 in 10.0 mi SW 8.1 mph - N/A   Overcast
11:55 PM 41.9 °F 39.0 °F 32.0 °F 68% 30.23 in 10.0 mi SW 4.6 mph - N/A   Overcast